Location: Washington
(38.8950°N, 77.0370°W)
Time: 20:57:18
(UTC-04:00)

ISS - All Passes

Search period start: 05 July 2015 00:00
Search period end: 15 July 2015 00:00
Orbit: 398 x 403 km, 51.6° (Epoch: 05 July)

Date Brightness Start Highest point End Pass type
(mag) Time Alt. Az. Time Alt. Az. Time Alt. Az.
05 Jul - 06:56:52 10° SE 06:57:41 11° SE 06:58:39 10° ESE daylight
05 Jul - 08:30:29 10° WSW 08:33:43 70° NW 08:36:58 10° NE daylight
05 Jul - 10:08:43 10° NW 10:10:37 14° NNW 10:12:29 10° NNE daylight
05 Jul - 13:23:29 10° NNW 13:25:37 16° NNE 13:27:47 10° ENE daylight
05 Jul - 14:59:09 10° NW 15:02:24 87° SSW 15:05:38 10° SE daylight
06 Jul - 07:37:02 10° SW 07:40:13 55° SE 07:43:24 10° ENE daylight
06 Jul - 09:14:17 10° WNW 09:16:49 20° NNW 09:19:20 10° NNE daylight
06 Jul - 12:30:24 10° N 12:31:47 12° NNE 12:33:12 10° NE daylight
06 Jul - 14:05:42 10° NW 14:08:50 45° NE 14:11:58 10° ESE daylight
06 Jul - 15:42:48 10° W 15:44:59 17° SW 15:47:07 10° S daylight
07 Jul - 06:44:02 10° SSW 06:46:46 26° SE 06:49:32 10° ENE daylight
07 Jul - 08:20:08 10° W 08:23:05 32° NNW 08:26:04 10° NE daylight
07 Jul - 09:59:30 10° NNW 10:00:17 11° NNW 10:01:03 10° N daylight
07 Jul - 13:12:21 10° NNW 13:15:09 26° NNE 13:17:58 10° E daylight
07 Jul - 14:48:37 10° WNW 14:51:35 34° SW 14:54:32 10° SSE daylight
08 Jul - 05:51:53 10° SSE 05:53:22 13° SE 05:54:57 10° E daylight
08 Jul - 07:26:14 10° WSW 07:29:26 60° NW 07:32:39 10° NE daylight
08 Jul - 09:04:38 10° NW 09:06:23 14° NNW 09:08:06 10° NNE daylight
08 Jul - 12:19:06 10° NNW 12:21:22 17° NNE 12:23:40 10° ENE daylight
08 Jul - 13:54:51 10° NW 13:58:06 75° SW 14:01:19 10° SE daylight
09 Jul - 06:32:39 10° SW 06:35:52 65° SE 06:39:05 10° ENE daylight
09 Jul - 08:10:07 10° WNW 08:12:32 19° NNW 08:14:55 10° NNE daylight
09 Jul - 11:25:57 10° NNW 11:27:30 13° NNE 11:29:06 10° NE daylight
09 Jul - 13:01:19 10° NW 13:04:29 52° NE 13:07:40 10° ESE daylight
09 Jul - 14:38:43 10° W 14:40:37 14° SW 14:42:25 10° SSW daylight
10 Jul - 05:39:29 10° SSW 05:42:21 30° SE 05:45:15 10° ENE daylight
10 Jul - 07:15:50 10° W 07:18:44 29° NNW 07:21:37 10° NNE daylight
10 Jul - 08:55:30 10° NNW 08:55:58 10° N 08:56:24 10° N daylight
10 Jul - 10:33:05 10° N 10:33:33 10° N 10:34:03 10° NNE daylight
10 Jul - 12:07:54 10° NNW 12:10:47 29° NNE 12:13:41 10° E daylight
10 Jul - 13:44:17 10° WNW 13:47:09 29° SW 13:50:00 10° SSE daylight
11 Jul - 04:47:01 10° SSE 04:48:53 15° SE 04:50:51 10° E visible
11 Jul - 06:21:50 10° WSW 06:25:01 51° NW 06:28:11 10° NE daylight
11 Jul - 08:00:25 10° NW 08:02:00 13° NNW 08:03:33 10° NNE daylight
11 Jul - 11:14:35 10° NNW 11:16:58 19° NNE 11:19:23 10° ENE daylight
11 Jul - 12:50:25 10° WNW 12:53:38 63° SW 12:56:49 10° SE daylight
12 Jul - 05:28:08 10° SW 05:31:21 76° SE 05:34:36 10° NE daylight
12 Jul - 07:05:47 10° WNW 07:08:05 17° NNW 07:10:21 10° NNE daylight
12 Jul - 10:21:21 10° NNW 10:23:04 14° NNE 10:24:49 10° NE daylight
12 Jul - 11:56:47 10° NW 12:00:00 61° NE 12:03:12 10° ESE daylight
12 Jul - 13:34:33 10° WSW 13:36:03 12° SW 13:37:27 10° SSW daylight
13 Jul - 04:34:48 10° SSW 04:37:47 34° SE 04:40:47 10° ENE visible
13 Jul - 06:11:24 10° W 06:14:13 26° NNW 06:17:01 10° NNE daylight
13 Jul - 09:28:18 10° N 09:29:04 11° NNE 09:29:53 10° NNE daylight
13 Jul - 11:03:18 10° NW 11:06:16 32° NNE 11:09:14 10° E daylight
13 Jul - 12:39:49 10° WNW 12:42:34 25° SW 12:45:16 10° S daylight
14 Jul - 03:42:05 10° S 03:44:15 17° SE 03:46:29 10° E visible
14 Jul - 05:17:17 10° WSW 05:20:25 45° NW 05:23:34 10° NE visible
14 Jul - 06:56:03 10° NW 06:57:28 12° NNW 06:58:51 10° N daylight
14 Jul - 10:09:54 10° NNW 10:12:24 20° NNE 10:14:56 10° ENE daylight
14 Jul - 11:45:50 10° WNW 11:49:00 54° SW 11:52:09 10° SE daylight
